Theta_e
320 320 326 325 325 328 325 327 329 327 320 320 321 321 321 323 324 319 319 321 322 322 324 327 330 331 330 331 332 332 331 328 326 324 323 323 323 323 323 324 324 325 325 326
318 323 323 324 323 325 327 329 330 325 315 316 319 320 320 320 322 324 323 322 321 320 322 324 326 328 328 325 326 331 331 326 325 324 324 324 324 324 324 325 325 326 327 327
321 321 322 325 325 325 327 328 330 332 318 317 316 318 319 319 321 321 320 320 321 320 319 322 324 326 329 329 326 323 319 319 323 324 326 326 327 327 327 327 327 327 327 327
321 320 322 323 325 324 328 323 326 326 321 323 318 321 320 320 320 320 320 318 317 318 318 318 322 324 324 322 325 323 319 318 320 324 325 326 325 324 323 323 325 324 323 326
319 320 321 323 324 322 324 321 322 320 322 322 322 320 317 317 318 319 321 319 317 317 317 317 317 321 320 320 320 318 320 320 319 322 323 323 321 321 323 323 322 324 324 326
316 319 320 321 320 320 318 318 319 319 320 321 320 318 316 316 317 317 320 323 322 322 320 318 317 317 318 319 320 320 320 319 318 320 319 320 319 321 323 323 324 325 327 327
316 320 313 320 321 318 318 318 319 321 321 318 311 316 316 316 317 317 317 317 317 317 321 321 319 316 316 319 319 319 321 321 323 327 326 322 321 322 322 322 323 325 326 327
320 321 315 316 321 319 317 319 318 319 318 315 309 313 314 315 315 316 315 314 313 316 316 316 318 317 316 315 316 318 319 320 321 323 324 325 325 325 324 324 324 327 328 327
319 317 315 315 319 317 318 320 316 313 304 314 314 314 315 314 314 315 315 314 313 312 314 314 313 315 315 314 314 314 314 314 316 318 320 323 323 324 323 324 326 328 329 328
315 316 314 314 316 315 318 316 317 316 313 315 315 316 315 314 314 312 312 313 312 312 311 312 312 311 310 312 312 312 312 313 313 312 314 315 318 321 322 325 330 332 332 332
312 314 312 311 314 315 312 317 315 316 317 319 318 314 313 312 312 310 310 311 311 311 310 310 310 310 310 310 310 310 310 310 311 311 311 311 315 320 325 328 330 329 330 329
312 312 311 313 307 307 312 316 315 316 318 315 315 315 311 310 309 311 311 311 310 310 310 310 310 310 310 309 309 310 310 310 310 310 309 310 310 313 317 320 322 327 330 329
310 310 313 313 311 308 312 312 315 312 314 315 313 313 309 309 309 311 312 311 311 311 311 310 310 310 310 310 310 309 309 310 309 309 309 309 309 309 310 312 314 317 320 324
311 311 312 315 314 311 312 313 314 314 313 315 315 313 309 308 308 310 310 311 312 312 311 311 310 311 310 310 310 310 310 310 310 310 310 310 311 312 314 315 316 319 321 323
311 309 310 311 310 311 312 313 313 315 314 315 314 315 313 309 309 310 311 313 313 312 311 310 310 310 310 310 310 310 310 310 310 310 310 310 311 311 311 311 311 311 311 311
311 307 307 306 309 310 312 313 313 314 315 314 313 313 313 314 315 313 312 312 311 311 310 310 310 310 309 309 309 310 310 310 310 310 310 310 310 311 311 312 312 312 311 311
311 306 308 305 309 310 310 312 313 314 314 314 314 313 309 309 311 311 313 312 310 311 310 310 310 309 309 309 309 309 309 310 310 310 310 310 311 312 312 313 313 312 311 313
307 310 309 307 305 307 309 310 312 313 313 314 314 311 311 312 312 312 312 310 310 311 310 310 309 309 309 309 309 308 309 310 309 310 310 310 311 312 313 312 314 314 316 317
309 309 308 309 303 308 310 307 310 312 312 311 313 312 312 313 312 312 311 311 310 309 309 309 308 308 308 308 308 308 308 309 309 310 310 310 311 311 312 312 314 313 314 316
309 310 311 310 305 308 310 305 309 308 310 307 309 309 308 310 308 310 310 310 310 309 309 308 308 308 307 307 307 308 308 309 309 309 309 310 310 310 312 312 313 315 314 314
311 310 311 306 304 308 309 304 309 308 308 308 310 310 309 308 309 309 310 310 309 308 308 308 307 307 307 307 306 307 307 308 308 309 309 309 309 309 311 311 311 313 312 312
311 312 312 305 305 311 305 307 308 307 308 309 309 309 310 310 310 310 309 309 307 307 306 306 306 306 306 307 307 307 307 307 308 308 308 307 307 308 309 310 310 311 311 310
309 311 311 311 309 306 307 307 310 310 309 308 309 309 309 309 309 309 309 308 307 306 306 306 306 306 306 306 307 308 307 307 307 307 307 307 306 307 307 308 308 308 309 308
307 308 308 307 306 303 306 307 309 310 310 309 309 309 309 309 308 308 307 306 306 306 306 306 306 306 306 306 306 306 306 306 306 306 306 305 305 305 305 306 307 307 306 306
304 306 303 305 303 304 305 307 308 309 309 308 308 308 309 308 307 307 306 305 305 306 306 306 306 306 306 306 306 306 306 305 305 305 305 304 304 304 303 303 303 303 302 301
303 307 308 309 304 308 306 308 308 308 308 308 307 307 308 308 308 307 305 305 305 305 304 304 304 304 303 303 303 304 304 305 305 304 304 303 303 302 302 302 301 301 300 298
Wind_Speed
18 7 13 20 14 6 14 12 8 12 5 5 9 9 11 20 19 15 16 18 19 25 23 24 28 29 29 28 28 28 30 31 31 32 32 31 30 28 26 24 23 22 22 20
10 19 18 14 15 14 9 12 9 5 6 2 7 11 9 15 19 22 24 21 19 16 22 26 28 31 33 32 33 34 36 33 32 34 33 33 30 30 28 26 25 25 24 22
21 15 19 19 18 17 14 11 9 6 5 5 6 10 11 12 23 23 26 27 27 23 22 26 30 31 33 34 36 36 34 32 34 34 34 33 30 30 31 31 29 29 27 25
12 13 19 18 19 17 16 11 9 8 4 2 6 5 5 5 16 19 26 32 34 32 25 25 28 32 33 35 35 35 34 33 34 35 36 36 36 36 36 33 31 30 25 25
14 22 24 21 18 13 5 9 4 6 1 6 5 2 6 7 6 8 25 32 34 35 35 34 33 35 32 33 35 35 35 34 35 37 37 37 38 37 36 35 32 32 29 26
4 11 13 7 8 9 8 10 7 3 2 6 10 8 5 6 7 8 7 23 33 29 28 30 34 34 35 34 33 35 37 37 37 38 38 38 38 39 38 37 35 34 32 30
4 7 4 13 14 6 8 12 3 2 4 6 5 8 10 5 3 2 1 8 6 7 18 28 29 33 35 36 34 33 36 38 39 38 39 38 38 39 39 36 35 35 35 34
13 10 13 12 24 13 20 13 5 7 5 4 4 7 6 8 2 5 7 7 9 11 15 15 16 27 32 34 33 33 34 35 37 38 40 40 39 39 39 37 36 35 36 35
12 5 11 15 19 13 14 16 5 6 0 2 5 6 7 10 4 5 10 12 8 7 13 14 12 21 22 28 32 33 33 33 37 39 40 40 41 41 41 39 35 34 34 35
5 6 7 7 10 6 18 11 5 2 5 5 5 4 6 4 7 6 6 5 2 3 4 10 13 13 19 25 26 27 28 29 30 34 38 39 39 40 39 37 32 30 30 29
14 6 2 7 8 17 6 15 6 5 4 5 1 5 6 9 8 8 9 8 4 1 0 3 7 12 15 17 18 22 25 28 30 32 34 38 39 39 38 33 32 33 31 32
3 6 9 12 3 5 6 12 4 5 6 2 3 5 3 9 9 16 12 9 6 6 7 6 5 4 6 9 13 16 18 21 24 27 29 33 37 38 38 35 35 34 34 33
8 6 9 4 6 1 9 10 18 5 4 6 5 5 2 11 9 10 12 8 3 6 10 8 9 11 8 6 7 10 13 15 15 17 18 21 24 27 28 29 30 30 30 31
9 5 7 15 14 7 8 14 14 5 3 5 11 5 6 6 7 9 9 4 1 6 13 8 8 10 9 8 8 9 10 12 12 12 14 16 18 20 22 23 24 25 26 27
7 5 5 7 8 11 20 13 7 15 8 8 14 14 9 10 9 17 15 6 10 13 9 8 10 10 9 9 9 10 10 10 11 12 13 15 16 18 20 20 22 24 25 26
8 5 6 4 7 10 20 22 20 27 27 20 11 12 4 17 15 13 7 5 9 7 9 16 16 13 11 11 11 11 12 12 12 13 14 15 17 17 17 18 19 20 21 21
12 6 6 1 7 11 0 26 28 26 21 27 14 13 6 5 4 8 11 15 14 14 19 20 20 17 14 15 14 14 14 14 14 14 13 13 13 13 13 13 14 13 14 12
10 7 4 5 4 4 8 24 28 28 28 28 23 7 8 6 8 14 17 16 21 24 21 20 21 22 19 17 15 15 16 14 14 14 12 11 10 11 11 10 10 12 13 14
7 5 5 7 5 4 7 8 25 18 22 22 29 15 14 18 18 33 20 24 26 23 21 25 26 25 24 20 16 16 16 15 15 15 12 11 11 11 10 11 12 12 13 17
6 7 5 4 6 11 2 11 26 6 18 12 21 15 13 13 7 15 15 23 20 18 16 13 16 17 18 19 18 17 16 16 16 14 13 13 12 11 11 10 12 14 15 17
11 6 12 5 3 7 6 11 29 11 7 18 33 31 28 13 22 11 7 12 11 7 7 10 11 10 11 13 14 15 15 15 14 13 14 13 11 11 11 12 12 14 16 17
12 14 10 3 2 14 12 17 19 6 4 14 18 19 23 30 22 18 15 11 9 8 8 9 9 8 8 9 9 9 11 12 13 13 12 11 11 11 11 12 12 15 17 18
5 13 13 14 7 4 32 20 28 20 15 13 15 14 15 17 20 17 17 15 11 9 8 6 5 4 3 4 4 5 7 8 9 11 11 10 10 11 12 12 12 15 16 18
5 7 7 7 8 7 29 10 32 22 21 20 17 14 11 13 16 17 15 15 13 10 7 5 5 5 4 4 3 2 3 5 7 8 9 9 9 9 9 10 11 12 13 15
5 12 8 4 3 8 19 27 35 29 21 19 15 13 12 14 19 20 19 16 12 10 10 10 10 11 11 10 8 8 7 5 4 4 4 5 6 6 7 8 10 11 13 15
7 17 12 10 18 19 20 37 33 35 30 19 18 16 16 18 22 23 20 17 16 16 15 14 13 12 12 11 10 9 7 5 4 4 4 3 4 5 7 8 10 11 12 15
Wind_Direction
169 161 202 188 194 187 174 191 199 216 151 154 238 249 241 241 250 234 241 241 244 207 212 220 215 216 217 212 214 219 225 227 222 222 223 230 233 237 240 242 244 245 250 248
155 213 194 192 192 224 191 171 214 351 121 174 266 261 232 223 236 229 232 240 243 222 206 213 221 219 220 216 214 212 223 228 225 227 230 234 236 242 247 248 245 248 250 250
178 182 172 183 193 203 218 209 187 200 152 226 293 282 238 238 242 231 230 236 231 231 218 215 217 225 224 220 217 219 225 224 224 228 229 232 233 237 240 241 243 243 247 246
193 166 185 190 193 188 207 220 156 200 113 240 156 285 310 279 223 218 219 226 233 230 221 218 220 227 228 229 226 226 228 227 227 227 229 231 235 237 241 243 244 250 246 241
187 185 182 191 188 181 191 117 100 96 280 322 235 264 269 231 260 212 215 221 231 234 232 225 220 230 238 234 230 230 230 229 229 229 234 235 239 242 245 244 244 245 247 241
62 167 173 151 145 148 134 114 96 105 122 265 217 206 260 213 218 217 201 213 228 235 238 239 234 230 238 240 236 231 230 232 232 232 236 237 241 243 242 244 242 244 246 245
126 175 68 159 145 123 155 136 125 166 200 232 348 198 237 270 120 66 296 268 254 249 239 235 235 229 232 237 238 236 233 234 233 233 236 242 243 245 249 250 250 248 247 247
158 177 165 186 175 179 174 166 152 179 188 201 310 229 245 244 360 181 239 256 268 261 250 233 230 232 232 235 237 238 239 240 239 237 239 242 245 247 252 252 253 252 254 257
165 161 173 175 168 148 199 195 128 105 92 73 201 252 288 262 218 252 268 222 243 269 250 246 242 228 229 237 239 242 242 244 243 244 243 243 246 247 250 253 251 248 252 254
157 102 173 169 158 211 183 155 157 208 151 234 249 233 227 206 206 215 171 177 149 274 229 232 248 245 232 239 241 236 237 240 243 245 247 250 249 249 250 249 244 240 240 244
124 115 147 133 204 186 156 186 184 134 171 174 155 256 206 175 166 157 117 111 109 82 251 260 251 253 256 246 239 243 242 239 238 238 237 239 243 241 239 235 232 233 234 235
124 115 152 192 343 5 234 191 151 169 206 211 152 267 193 136 139 133 138 129 101 66 52 40 29 335 280 256 253 256 255 250 248 248 245 242 242 243 244 240 242 240 236 237
170 136 119 154 338 299 208 221 192 95 94 199 133 254 284 123 128 147 144 138 93 20 4 356 355 355 337 315 281 264 257 254 253 254 253 248 246 247 246 245 246 241 242 241
105 133 169 184 183 111 186 203 199 135 138 159 218 144 158 171 176 171 181 188 264 338 325 329 304 314 319 313 305 288 279 278 268 256 248 243 241 242 241 242 243 243 243 243
119 135 130 161 153 150 174 193 198 214 193 190 227 215 213 194 190 189 195 232 300 308 302 329 334 296 299 297 297 288 279 270 263 260 260 256 252 250 250 249 248 246 245 246
172 144 117 37 151 158 181 192 190 204 209 227 248 263 162 222 238 205 219 275 284 286 294 303 310 299 288 305 293 290 279 265 259 260 256 254 253 253 253 256 256 250 245 241
162 126 135 141 124 107 49 202 196 216 207 215 210 221 133 120 132 191 248 271 280 279 299 294 296 291 291 301 288 287 283 270 262 258 254 253 255 253 248 241 240 237 234 226
145 113 88 157 119 178 238 185 204 207 213 218 232 164 192 210 232 249 244 249 266 278 284 282 286 287 287 289 283 282 277 265 255 253 248 249 252 252 251 244 230 223 218 216
147 122 101 146 201 258 217 185 191 188 233 218 228 227 234 250 274 271 251 260 264 269 276 283 281 278 277 270 269 269 267 255 248 250 249 252 252 253 247 232 223 229 228 224
45 79 112 150 158 211 176 170 174 113 261 194 214 221 207 201 231 253 234 249 261 267 278 275 274 274 264 255 255 255 256 248 242 247 249 246 246 246 247 237 227 228 232 239
159 165 184 190 201 279 197 166 146 160 254 187 199 217 199 196 221 169 185 238 247 249 262 274 270 268 262 254 248 245 246 242 239 240 246 246 247 248 245 236 230 230 232 234
167 169 187 122 184 250 174 153 164 200 180 181 209 211 200 217 225 225 228 225 248 261 263 261 260 258 255 252 248 243 236 232 233 237 243 247 249 248 246 244 237 237 238 242
164 193 168 192 199 212 174 171 182 179 164 164 174 181 191 197 209 210 216 227 236 229 224 237 242 242 245 236 229 216 215 223 232 239 241 242 243 242 240 240 242 241 242 244
221 173 170 120 216 179 193 179 184 183 184 178 172 158 173 199 198 202 204 199 198 204 209 201 187 172 162 151 152 173 196 210 216 222 225 228 234 240 245 248 246 244 246 249
180 170 156 207 51 104 190 203 195 196 190 173 179 185 181 186 183 184 187 188 183 178 171 161 152 140 129 119 116 116 122 137 161 185 211 223 236 249 252 252 253 253 254 251
188 184 188 208 164 184 192 193 203 204 206 196 195 177 186 191 185 181 181 180 178 171 162 154 145 136 128 123 121 118 116 119 143 170 190 209 233 246 250 251 256 258 260 264